CW4549 Weather Reports


Display with metric or nautical units.
time (UTC)temp
F
wind
direction
speed
MPH
gust
MPH
rain 1hr
in
rain 24hr
in
rain mn
in
humidity
%
barometer
mb
20260903103015 76 0.0 0.0 0.00 0.00 0.00 97 1011.4
20260903101515 76 0.0 0.0 0.00 0.00 0.00 97 1011.5
20260903100015 76 0.0 0.0 0.00 0.00 0.00 98 1011.5
20260903094536 76 0.0 0.0 0.00 0.00 0.00 98 1011.4
20260903093015 76 0.0 0.0 0.00 0.00 0.00 98 1011.4
20260903091517 76 0.0 0.0 0.00 0.00 0.00 98 1011.3
20260903090017 76 0.0 0.0 0.00 0.00 0.00 98 1011.3
20260903084516 76 0.0 0.0 0.00 0.00 0.00 98 1011.3
20260903083016 76 0.0 0.0 0.00 0.00 0.00 98 1011.2
20260903081516 76 0.0 0.0 0.00 0.00 0.00 98 1011.2
20260903080017 76 0.0 0.0 0.00 0.00 0.00 97 1011.2
20260903074516 76 0.0 0.0 0.00 0.00 0.00 97 1011.1
20260903073016 76 0.0 0.0 0.00 0.00 0.00 97 1011.0
20260903071516 76 0.0 0.0 0.00 0.00 0.00 97 1010.9
20260903070016 77 0.0 0.0 0.00 0.00 0.00 96 1011.0
20260903064516 77 0.0 0.0 0.00 0.00 0.00 96 1011.0
20260903063017 77 0.0 0.0 0.00 0.00 0.00 95 1011.1
20260903061516 77 0.0 0.0 0.00 0.00 0.00 94 1011.0
20260903060016 77 0.0 0.0 0.00 0.00 0.00 94 1010.8
20260903054516 78 0.0 0.0 0.00 0.00 0.00 93 1010.8
20260903053016 78 0.0 0.0 0.00 0.00 0.00 93 1010.8
20260903051516 78 0.0 0.0 0.00 0.00 0.00 92 1010.7
20260903050016 78 0.0 0.0 0.00 0.00 0.00 91 1010.7
20260903044517 79 0.0 0.0 0.00 0.00 0.00 90 1010.6
20260903043016 79 0.0 0.0 0.00 0.00 0.00 89 1010.6
20260903041516 79 0.0 0.0 0.00 0.00 0.00 88 1010.6
20260903040016 79 0.0 0.0 0.00 0.00 0.00 87 1010.7
20260903034538 79 0.0 0.0 0.00 0.00 0.00 87 1010.7
20260903033039 80 0.0 0.0 0.00 0.00 0.00 86 1010.6
20260903031516 80 0.0 0.0 0.00 0.00 0.00 85 1010.7
20260903030016 81 0.0 0.0 0.00 0.00 0.00 83 1010.9
20260903024516 82 0.0 0.0 0.00 0.00 0.00 81 1011.0
20260903023016 82 0.0 0.0 0.00 0.00 0.00 79 1010.9
20260903021516 82 0.0 0.0 0.00 0.00 0.00 80 1011.0
20260903020016 81 0.0 0.0 0.00 0.00 0.00 83 1011.0
20260903014516 81 0.0 0.0 0.00 0.00 0.00 84 1011.0
20260903013017 82 0.0 0.0 0.00 0.00 0.00 83 1010.7
20260903011517 82 0.0 0.0 0.00 0.00 0.00 83 1010.7
20260903010017 83 0.0 0.0 0.00 0.00 0.00 81 1010.4
20260903004517 84 0.0 0.0 0.00 0.00 0.00 78 1010.4
20260903003016 85 0.0 0.0 0.00 0.00 0.00 76 1010.1
20260903001517 86 0.0 0.0 0.00 0.00 0.00 73 1010.2
20260903000017 88 0.0 0.0 0.00 0.00 0.00 70 1010.3
20260902234518 89 0.0 0.0 0.00 0.00 0.00 66 1010.3
20260902233017 90 0.0 2.0 0.00 0.00 0.00 65 1010.4
20260902231517 91 0.0 1.0 0.00 0.00 0.00 61 1010.5
20260902230017 92 0.0 6.0 0.00 0.00 0.00 58 1010.6
20260902224537 92 0.0 4.0 0.00 0.00 0.00 57 1010.6
20260902223017 92 0.0 5.0 0.00 0.00 0.00 57 1010.6
20260902221517 93 0.0 8.0 0.00 0.00 0.00 57 1010.7
20260902220017 93 158 1.0 6.0 0.00 0.00 0.00 55 1010.7
20260902214517 94 158 1.0 7.0 0.00 0.00 0.00 52 1010.7
20260902213018 94 0.0 3.0 0.00 0.00 0.00 53 1010.7
20260902211517 93 0.0 2.0 0.00 0.00 0.00 55 1010.7
20260902210018 94 0.0 6.0 0.00 0.00 0.00 55 1010.9
20260902204517 95 0.0 7.0 0.00 0.00 0.00 51 1011.1
20260902203017 95 158 1.0 8.0 0.00 0.00 0.00 49 1011.0
20260902201519 95 158 1.0 8.0 0.00 0.00 0.00 52 1011.2
20260902200017 95 158 1.0 5.0 0.00 0.00 0.00 52 1011.2
20260902194517 95 158 1.0 8.0 0.00 0.00 0.00 50 1011.4
20260902193017 95 158 1.0 6.0 0.00 0.00 0.00 52 1011.6
20260902191559 95 0.0 3.0 0.00 0.00 0.00 51 1011.8
20260902190017 94 158 1.0 7.0 0.00 0.00 0.00 52 1012.0
20260902184537 95 0.0 6.0 0.00 0.00 0.00 50 1012.0
20260902183018 95 158 1.0 10.0 0.00 0.00 0.00 52 1012.1
20260902181542 95 158 1.0 8.0 0.00 0.00 0.00 52 1012.2
20260902180017 94 0.0 5.0 0.00 0.00 0.00 53 1012.4
20260902174518 94 0.0 4.0 0.00 0.00 0.00 53 1012.4
20260902173017 94 0.0 7.0 0.00 0.00 0.00 53 1012.7
20260902171517 92 0.0 3.0 0.00 0.00 0.00 58 1012.8
20260902170017 94 0.0 3.0 0.00 0.00 0.00 59 1012.7
20260902164517 94 158 1.0 6.0 0.00 0.00 0.00 58 1012.8
20260902163037 93 0.0 5.0 0.00 0.00 0.00 61 1012.9
20260902161519 92 158 2.0 10.0 0.00 0.00 0.00 62 1013.0
20260902160018 92 0.0 6.0 0.00 0.00 0.00 61 1013.0
20260902154517 91 158 1.0 7.0 0.00 0.00 0.00 63 1013.1
20260902153017 90 158 1.0 7.0 0.00 0.00 0.00 64 1013.3
20260902151518 89 0.0 3.0 0.00 0.00 0.00 67 1013.3
20260902150019 88 0.0 6.0 0.00 0.00 0.00 67 1013.3
20260902144517 87 0.0 6.0 0.00 0.00 0.00 69 1013.3
20260902143037 86 0.0 3.0 0.00 0.00 0.00 73 1013.3
20260902141558 84 0.0 1.0 0.00 0.00 0.00 77 1013.3
20260902140015 83 0.0 7.0 0.00 0.00 0.00 80 1013.4
20260902134516 82 0.0 4.0 0.00 0.00 0.00 80 1013.5
20260902133015 81 0.0 3.0 0.00 0.00 0.00 81 1013.5
20260902131515 80 0.0 3.0 0.00 0.00 0.00 83 1013.5
20260902130016 79 0.0 5.0 0.00 0.00 0.00 86 1013.4
20260902124517 78 0.0 1.0 0.00 0.00 0.00 89 1013.4
20260902123015 77 0.0 0.0 0.00 0.00 0.00 93 1013.3
20260902121515 76 0.0 0.0 0.00 0.00 0.00 95 1013.2
20260902120015 75 0.0 0.0 0.00 0.00 0.00 96 1013.0
20260902114515 75 0.0 0.0 0.00 0.00 0.00 97 1012.9
20260902113038 74 0.0 0.0 0.00 0.00 0.00 98 1012.8
20260902111515 74 0.0 0.0 0.00 0.00 0.00 99 1012.6
20260902110015 74 0.0 0.0 0.00 0.00 0.00 99 1012.6
20260902104517 74 0.0 0.0 0.00 0.00 0.00 99 1012.7
20260902103057 74 0.0 0.0 0.00 0.00 0.00 99 1012.6